This is the latest recevied weather packets stored in our database for station/object K4CRS-13. If no packets are shown the sender has not sent any weather packets the latest 10 day(s).
| Time | Temp. | Humidity | Pressure | Rain* | Wind** | Luminosity | Snow |
|---|---|---|---|---|---|---|---|
| 1787934145 | 30° C | 59% | 1053.8 hPa | 0 mm | - | 242 W/m² | - |
| 1787933843 | 29.44° C | 58% | 1054.1 hPa | 0 mm | - | 764 W/m² | - |
| 1787933538 | 28.89° C | 62% | 1053.7 hPa | 0 mm | - | 746 W/m² | - |
| 1787933234 | 29.44° C | 59% | 1054 hPa | 0 mm | - | 180 W/m² | - |
| 1787932933 | 29.44° C | 62% | 1053.9 hPa | 0 mm | - | 238 W/m² | - |
| 1787932632 | 29.44° C | 62% | 1053.9 hPa | 0 mm | - | 726 W/m² | - |
| 1787932327 | 29.44° C | 60% | 1053.8 hPa | 0 mm | - | 671 W/m² | - |
| 1787932021 | 28.89° C | 61% | 1053.7 hPa | 0 mm | - | 656 W/m² | - |
| 1787931720 | 28.89° C | 63% | 1053.8 hPa | 0 mm | - | 643 W/m² | - |
| 1787931420 | 28.89° C | 62% | 1053.9 hPa | 0 mm | - | 635 W/m² | - |
| 1787931116 | 28.89° C | 64% | 1053.8 hPa | 0 mm | - | 622 W/m² | - |
| 1787930815 | 29.44° C | 65% | 1053.7 hPa | 0 mm | - | 610 W/m² | - |
| 1787930514 | 29.44° C | 64% | 1053.6 hPa | 0 mm | - | 598 W/m² | - |
| 1787930209 | 28.89° C | 66% | 1053.7 hPa | 0 mm | - | 585 W/m² | - |
| 1787929908 | 28.89° C | 65% | 1053.7 hPa | 0 mm | - | 573 W/m² | - |
| 1787929608 | 28.89° C | 67% | 1053.4 hPa | 0 mm | - | 560 W/m² | - |
| 1787929303 | 28.33° C | 67% | 1053.6 hPa | 0 mm | - | 550 W/m² | - |
| 1787929001 | 28.33° C | 66% | 1053.7 hPa | 0 mm | - | 532 W/m² | - |
| 1787928696 | 27.78° C | 66% | 1053.6 hPa | 0 mm | - | 520 W/m² | - |
| 1787928394 | 27.78° C | 70% | 1053.9 hPa | 0 mm | - | 506 W/m² | - |
| 1787928093 | 27.78° C | 70% | 1053.8 hPa | 0 mm | - | 490 W/m² | - |
| 1787927792 | 27.78° C | 71% | 1053.7 hPa | 0 mm | - | 472 W/m² | - |
| 1787927488 | 27.78° C | 70% | 1053.5 hPa | 0 mm | - | 461 W/m² | - |
| 1787927183 | 27.78° C | 71% | 1053.6 hPa | 0 mm | - | 442 W/m² | - |
| 1787926878 | 27.22° C | 74% | 1053.6 hPa | 0 mm | - | 323 W/m² | - |
* Rain latest hour (hover to see other rain measurements)
** Current wind speed in m/s (hover to see current wind gust speed)